Погода в Безенчуке

Погода в Безенчуке : погода сейчас, прогноз погоды и архив. Всё, что Вы хотите узнать о погоде в Безенчуке!

Хотите узнать прогноз погоды в Безенчуке? Тогда Вам сюда: Погода в Безенчуке

Поиск расширенной информации на нашем сайте:

Другие новости

Новости СМИ2

Главная страница сайта

Новости сайта

02.10.2013

Напоминаем, что на нашем новом сайте вы можете получить высокодетализированные прогнозы погоды по пунктам России, СНГ и мира (включающие важные для авиации метеовеличины, такие как направление и скорость ветра, видимость, явления погоды, количество и форма облачности, нижняя и верхняя граница облачности), а также ознакомиться с разнообразными материалами по авиационной метеорологии и подборкой полезных ссылок на эту тему.

Сайт Метеоцентр.Азия посвящён разработке технологий оптимизации авиаметеорологического обслуживания, включая проектирование и перспективное создание нескольких автоматизированных авиаметеорологических систем:
- система выпуска высокодетальных прогностических карт явлений погоды для нижнего воздушного пространства по России и ближнему зарубежью;
- система верификации прогнозов TAF (выпускаемых синоптиками официальных АМСГ РФ и ближнего зарубежья) и AUTOTAF (выпускаемых сайтом Метеоцентр.Азия) - выявление ошибок, онлайн-сопоставление с фактической погодой METAR, автоматическое внесение коррективов в прогнозы при резком отклонении фактической погоды от прогноза, подсчёт оправдываемости прогнозов по элементам и в целом;
- система обработки, анализа и отображения авиаметеорологической информации для применения провайдерами метеорологической информации.

Рекомендуем: Драйвера для ноутбуков asus драйвера asus для windows 7.

Погода в Безенчуке - сегодня

Время (UTC), дата Ветер
(°,м/с) 
Видим.   Явления Облачность Т
(°С)
Тd
(°С)
f(%) Тe
(°С)
Pmin
(гПа)
dP
(гПа)
Po
(мм)
O2
(г/м3)
Тmin Tmax R s Состояние
почвы
06 25.05.17 250 (З) 20000 м    ясно 
+22.6 +11.1 48 +25  1017.9  0.3  759  281           
09 25.05.17 230 (ЮЗ) 20000 м  гроза без осадков  8/8 600 м кучево-дожд. 
[Cb cap]
+23.4 +9.4 41 +24  1017.4  -0.5  759  280           
12 25.05.17 210 (ЮЗ) 20000 м  {гроза}  8/8 600 м кучево-дожд. 
[Cb cap]
+26.3 +7.9 31 +26  1016.2  -1.1  758  277           
15 25.05.17 200 (Ю) 20000 м    4/4 1000 м 
[Cu hum]
+24.7 +7.7 34 +25  1015.6  -0.6  758  279    +26.5       
18 25.05.17 200 (Ю) 20000 м    ясно 
+18.7 +8.5 51 +20  1015.9  0.7  758  284           
21 25.05.17 210 (ЮЗ) 21000 м    ясно 
+16.7 +7.8 56 +18  1016.4  0.1  758  287           
00 26.05.17 180 (Ю) 20000 м    3/0 средняя 
[Ac trans]
+12 +8.8 81 +13  1016.4  0.1  758  291           
03 26.05.17 130 (ЮВ) 20000 м    3/0 верхняя 
[Ci fib]
+16.1 +10.7 70 +19  1016.1  -0.2  758  286  +9.7        сухая 
06 26.05.17 180 (Ю) 20000 м    8/3 600 м верхняя 
[Cu hum|Ci fib]
+23.7 +9.2 40 +24  1015.5  -0.4  757  279           
09 26.05.17 200 (Ю) 20000 м    9/6 600 м верхняя 
[Cu hum|Cs]
+24.7 +7.1 32 +25  1014.7  -0.8  757  279           
12 26.05.17 190 (Ю) 20000 м    9/3 600 м верхняя 
[Cu hum|Cs]
+25.2 +6.3 30 +25  1012.7  -1.9  755  278           
18 26.05.17 180 (Ю) 23000 м    9/4 600 м средняя 
[Sc|Ac trans]
+17.3 +8.3 55 +18  1012.3  755  285           
21 26.05.17 170 (Ю) 22000 м    9/0 средняя 
[As trans]
+14 +8.4 69 +15  1011  -1.3  754  288           
00 27.05.17 120 (ЮВ) 20000 м    10/3 600 м средняя 
[Sc|Ac As]
+10.1 +8.1 87 +11  1010.1  -1  753  291           
03 27.05.17 тихо ()   20000 м    9/4 600 м средняя, верхняя 
[Sc|Ac As|Cs]
+16.1 +9.9 67 +17  1009.5  -0.5  753  285  +9.7        сухая 
06 27.05.17 220 (ЮЗ) 20000 м    9/9 600 м 
[Sc]
+20.3 +11.2 56 +23  1008.6  -0.8  752  280           
09 27.05.17 260 (З) 20000 м    8/8 600 м 
[Sc]
+22.8 +10.5 46 +25  1007.4  -1.1  751  278           
12 27.05.17 260 (З) 20000 м    8/1 1000 м верхняя 
[Cu hum|Ci fib]
+24.7 +7.1 32 +25  1005.4  -2  750  276           
15 27.05.17 280 (З) 5-10{13}  4000 м  слаб. дождь  9/9 600 м 
[Sc]
+17.3 +11.9 71 +21  1006.6  1.1  751  282    +25  0.0     
21 27.05.17 340 (С) 20000 м  {дождь}  10/10 600 м 
[Sc]
+12.9 +9.8 81 +14  1008.2  0.7  752  287           
00 28.05.17 360 (С) 20000 м    9/9 600 м 
[Sc]
+11.7 +7.8 77 +12  1009.9  1.7  753  290           
03 28.05.17 360 (С) 20000 м    1/0 средняя 
[Ac lent]
+11.4 +6 69 +11  1011.2  1.2  754  291  +9.9        сухая 
06 28.05.17 170 (Ю) 20000 м    4/3 1000 м верхняя 
[Cu med, cong|Ci fib]
+14.1 +4.7 53 +15  1011.2  754  288           
15 28.05.17 360 (С) 4{12}  4000 м  слаб. ливневой дождь  10/10 600 м кучево-дожд. 
[Cb cap]
+7.2 +6.2 93 +6  1008.3  -0.7  752  294    +16     
03 29.05.17 350 (С) 20000 м    3/0 верхняя 
[Ci fib]
+5.9 -0.5 63 +5  1016.5  1.8  758  299  +3.2    14    влажная 
Время (UTC), дата Ветер
(°,м/с) 
Видим.   Явления Облачность Т
(°С)
Тd
(°С)
f(%) Тe
(°С)
Pmin
(гПа)
dP
(гПа)
Po
(мм)
O2
(г/м3)
Тmin Tmax R s Состояние
почвы

Для получения пояснительной информации подведите курсор к названию столбца.

ПОГОДА в Безенчуке - архив

Всё, что Вы хотите узнать о погоде в Безенчуке - удобно и подробно!

Выберите нужную дату (начиная с 1 января 2015* года) и нажмите кнопку "Найти".
Будут отображены архивные сводки погоды по пункту Безенчук, начиная с указанной даты.


Отображать данные в формате CSV (для использования в таблицах Excel)


Внимание! Наш архив погоды предназначен исключительно для личного некоммерческого использования в познавательных целях. Если Вам необходимы официальные справки о состоянии погоды (для производственных, юридических, коммерческих и т.п. целей), обращайтесь в органы Росгидромета.

*Примечание: данная дата относится к архиву по метеостанциям СССР (Россия, СНГ, Балтия).
Архив по метеостанциям Зарубежной Европы и Азии (кроме Китая) хранится 10 дней, по другим регионам земного шара (Китай, Африка, Америка, Австралия, Океания) - 1 день.

Безенчук - район местоположения метеостанции


Название, широта, долгота, высота метеостанции:
Безенчук 53°ш. 49.4°д. 46 м над ур. моря [Российская Федерация]

Дополнительная информация

В oтличие oт бoльшинства пoгoдных сайтoв мы публикуем пoдрoбную метеoинфoрмацию в детальнoм прoфессиoнальнoм фoрмате.

Характеристики температуры и влажнoсти вoздуха измеряются на высoте 2 м в тени вдали oт зданий и деревьев.
Скoрoсть ветра измеряется на высoте 10 м (на урoвне рoста челoвека скoрoсть ветра ниже в 1.5-2 раза). Если метеoстанция нахoдится в гoрoде или в лесу, тo скoрoсть ветра занижена на 2-4 м/с пo сравнению с oткрытым местoм. Скoрoсть ветра над акватoриями крупных рек и oзёр, а также на вершинах хoлмoв на 2-5 м/с выше, чем в oбычных услoвиях.
Атмoсфернoе давление в разных тoчках местнoсти мoжет значительнo oтличаться oт давления на метеoстанции, в зависимoсти oт услoвий рельефа (при пoдъёме на 10 м давление пoнижается примернo на 1 мм рт.ст.).